When you browse on this site, cookies collect data to enhance your experience and personalize the content and advertising you see.
Visit our Privacy Policy to learn more. By continuing to use the site, you agree to this use of cookies and data.
  • en France
  • Liste des pays
  • À 7 jours
  • Température de l'eau
  • Carte météo
  • Widgets météo
  • user-avatar
    Se connecter

    Météo par heure à Shеki

    Ce jour, 27 Mai, Mercredi

    Heure Température Précipitation Vent Pression Humidité
    00:00 +17°C° 0 mm 2 m/s 740 mmHg 58%
    01:00 +17°C° 0 mm 2 m/s 739 mmHg 58%
    02:00 +18°C° 0 mm 1 m/s 739 mmHg 58%
    03:00 +16°C° 0 mm 1 m/s 739 mmHg 59%
    04:00 +18°C° 0 mm 1 m/s 740 mmHg 59%
    05:00 +19°C° 0 mm 1 m/s 740 mmHg 58%
    06:00 +20°C° 0 mm 1 m/s 741 mmHg 58%
    07:00 +21°C° 0 mm 1 m/s 740 mmHg 55%
    08:00 +23°C° 0 mm 1 m/s 740 mmHg 51%
    09:00 +25°C° 0 mm 2 m/s 740 mmHg 47%
    10:00 +26°C° 0 mm 2 m/s 740 mmHg 45%
    11:00 +27°C° 0 mm 2 m/s 740 mmHg 43%
    12:00 +28°C° 0 mm 2 m/s 739 mmHg 41%
    13:00 +28°C° 0 mm 2 m/s 739 mmHg 40%
    14:00 +29°C° 0 mm 2 m/s 739 mmHg 39%
    15:00 +29°C° 0 mm 2 m/s 738 mmHg 38%
    16:00 +29°C° 0 mm 1 m/s 738 mmHg 40%
    17:00 +28°C° 0 mm 1 m/s 738 mmHg 43%
    18:00 +28°C° 0 mm 1 m/s 738 mmHg 45%
    19:00 +26°C° 0 mm 1 m/s 738 mmHg 48%
    20:00 +24°C° 0 mm 1 m/s 738 mmHg 51%
    21:00 +22°C° 0 mm 1 m/s 738 mmHg 55%
    22:00 +22°C° 0 mm 1 m/s 738 mmHg 55%
    23:00 +21°C° 0 mm 1 m/s 738 mmHg 56%

    Demain, 28 Mai, Jeudi

    Heure Température Précipitation Vent Pression Humidité
    00:00 +21°C° 0 mm 1 m/s 737 mmHg 57%
    01:00 +20°C° 0 mm 1 m/s 737 mmHg 57%
    02:00 +20°C° 0 mm 1 m/s 737 mmHg 57%
    03:00 +19°C° 0 mm 1 m/s 737 mmHg 56%
    04:00 +18°C° 0 mm 0 m/s 737 mmHg 56%
    05:00 +19°C° 0 mm 0 m/s 737 mmHg 56%
    06:00 +20°C° 0 mm 0 m/s 737 mmHg 56%
    07:00 +24°C° 0 mm 1 m/s 736 mmHg 53%
    08:00 +26°C° 0 mm 1 m/s 736 mmHg 49%
    09:00 +27°C° 0 mm 1 m/s 736 mmHg 46%
    10:00 +28°C° 0 mm 2 m/s 736 mmHg 43%
    11:00 +30°C° 0 mm 2 m/s 735 mmHg 40%
    12:00 +31°C° 0 mm 2 m/s 735 mmHg 38%
    13:00 +31°C° 0 mm 2 m/s 735 mmHg 36%
    14:00 +32°C° 0 mm 2 m/s 734 mmHg 35%
    15:00 +34°C° 0 mm 2 m/s 734 mmHg 34%
    16:00 +32°C° 0 mm 2 m/s 734 mmHg 37%
    17:00 +31°C° 0 mm 2 m/s 734 mmHg 40%
    18:00 +30°C° 0 mm 1 m/s 734 mmHg 43%
    19:00 +28°C° 0 mm 2 m/s 734 mmHg 46%
    20:00 +26°C° 0 mm 2 m/s 734 mmHg 48%
    21:00 +25°C° 0 mm 3 m/s 734 mmHg 51%
    22:00 +24°C° 0 mm 2 m/s 734 mmHg 52%
    23:00 +23°C° 0 mm 2 m/s 733 mmHg 52%

    Après-demain, 29 Mai, Vendredi

    Heure Température Précipitation Vent Pression Humidité
    00:00 +22°C° 0 mm 1 m/s 733 mmHg 53%
    01:00 +22°C° 0 mm 1 m/s 733 mmHg 53%
    02:00 +22°C° 0 mm 1 m/s 733 mmHg 53%
    03:00 +22°C° 0 mm 1 m/s 732 mmHg 53%
    04:00 +22°C° 0 mm 1 m/s 732 mmHg 53%
    05:00 +21°C° 0 mm 0 m/s 732 mmHg 53%
    06:00 +22°C° 0 mm 0 m/s 732 mmHg 52%
    07:00 +26°C° 0 mm 1 m/s 732 mmHg 49%
    08:00 +27°C° 0 mm 1 m/s 732 mmHg 45%
    09:00 +29°C° 0 mm 2 m/s 732 mmHg 41%
    10:00 +31°C° 0 mm 2 m/s 731 mmHg 38%
    11:00 +32°C° 0 mm 2 m/s 731 mmHg 35%
    12:00 +35°C° 0 mm 3 m/s 731 mmHg 32%
    13:00 +35°C° 0 mm 3 m/s 730 mmHg 30%
    14:00 +36°C° 0 mm 3 m/s 729 mmHg 28%
    15:00 +37°C° 0 mm 3 m/s 728 mmHg 27%
    16:00 +36°C° 0.2 mm 3 m/s 728 mmHg 31%
    17:00 +34°C° 0.2 mm 3 m/s 728 mmHg 36%
    18:00 +33°C° 0.2 mm 3 m/s 728 mmHg 41%
    19:00 +29°C° 0.1 mm 3 m/s 728 mmHg 47%
    20:00 +27°C° 0.1 mm 2 m/s 728 mmHg 53%
    21:00 +25°C° 0.1 mm 2 m/s 729 mmHg 59%
    22:00 +24°C° 0.1 mm 2 m/s 729 mmHg 61%
    23:00 +24°C° 0.1 mm 2 m/s 728 mmHg 64%

    30 Mai, Samedi

    Heure Température Précipitation Vent Pression Humidité
    00:00 +23°C° 0.1 mm 1 m/s 728 mmHg 66%
    01:00 +21°C° 0 mm 2 m/s 728 mmHg 68%
    02:00 +21°C° 0 mm 2 m/s 728 mmHg 70%
    03:00 +20°C° 0 mm 3 m/s 728 mmHg 72%
    04:00 +21°C° 0 mm 3 m/s 729 mmHg 71%
    05:00 +22°C° 0 mm 4 m/s 729 mmHg 69%
    06:00 +22°C° 0 mm 4 m/s 730 mmHg 68%
    07:00 +25°C° 0 mm 5 m/s 730 mmHg 61%
    08:00 +27°C° 0 mm 5 m/s 730 mmHg 54%
    09:00 +29°C° 0 mm 6 m/s 731 mmHg 47%
    10:00 +32°C° 0 mm 6 m/s 731 mmHg 40%
    11:00 +33°C° 0 mm 6 m/s 731 mmHg 34%
    12:00 +35°C° 0 mm 6 m/s 732 mmHg 27%
    13:00 +35°C° 0 mm 6 m/s 732 mmHg 25%
    14:00 +35°C° 0 mm 6 m/s 732 mmHg 23%
    15:00 +35°C° 0 mm 5 m/s 732 mmHg 21%
    16:00 +34°C° 0 mm 5 m/s 732 mmHg 25%
    17:00 +33°C° 0 mm 5 m/s 732 mmHg 29%
    18:00 +30°C° 0 mm 4 m/s 732 mmHg 33%
    19:00 +28°C° 0 mm 4 m/s 733 mmHg 36%
    20:00 +26°C° 0 mm 3 m/s 733 mmHg 39%
    21:00 +24°C° 0 mm 3 m/s 733 mmHg 42%
    22:00 +23°C° 0 mm 2 m/s 734 mmHg 48%
    23:00 +21°C° 0 mm 2 m/s 734 mmHg 53%

    31 Mai, Dimanche

    Heure Température Précipitation Vent Pression Humidité
    00:00 +21°C° 0 mm 1 m/s 734 mmHg 59%
    01:00 +19°C° 0 mm 2 m/s 734 mmHg 62%
    02:00 +19°C° 0 mm 2 m/s 734 mmHg 65%
    03:00 +18°C° 0 mm 2 m/s 735 mmHg 68%
    04:00 +19°C° 0 mm 2 m/s 735 mmHg 67%
    05:00 +20°C° 0 mm 2 m/s 735 mmHg 65%
    06:00 +20°C° 0 mm 2 m/s 736 mmHg 64%
    07:00 +23°C° 0 mm 2 m/s 736 mmHg 60%
    08:00 +24°C° 0 mm 2 m/s 736 mmHg 55%
    09:00 +26°C° 0 mm 2 m/s 736 mmHg 51%
    10:00 +27°C° 0.1 mm 2 m/s 736 mmHg 48%
    11:00 +28°C° 0.1 mm 2 m/s 736 mmHg 46%
    12:00 +29°C° 0.1 mm 3 m/s 736 mmHg 43%
    13:00 +29°C° 0 mm 3 m/s 736 mmHg 41%
    14:00 +30°C° 0 mm 3 m/s 735 mmHg 39%
    15:00 +30°C° 0 mm 3 m/s 735 mmHg 38%
    16:00 +30°C° 0 mm 2 m/s 735 mmHg 39%
    17:00 +29°C° 0 mm 2 m/s 735 mmHg 41%
    18:00 +29°C° 0 mm 2 m/s 735 mmHg 42%
    19:00 +27°C° 0 mm 3 m/s 735 mmHg 49%
    20:00 +25°C° 0 mm 4 m/s 736 mmHg 55%
    21:00 +21°C° 0 mm 4 m/s 736 mmHg 62%
    22:00 +21°C° 0 mm 4 m/s 736 mmHg 62%
    23:00 +20°C° 0 mm 3 m/s 736 mmHg 63%

    1 Juin, Lundi

    Heure Température Précipitation Vent Pression Humidité
    00:00 +19°C° 0 mm 3 m/s 736 mmHg 64%
    01:00 +19°C° 0 mm 2 m/s 735 mmHg 64%
    02:00 +18°C° 0 mm 2 m/s 735 mmHg 63%
    03:00 +19°C° 0 mm 1 m/s 735 mmHg 63%
    04:00 +20°C° 0 mm 1 m/s 735 mmHg 60%
    05:00 +21°C° 0 mm 1 m/s 735 mmHg 58%
    06:00 +21°C° 0 mm 1 m/s 735 mmHg 56%
    07:00 +23°C° 0 mm 1 m/s 735 mmHg 51%
    08:00 +24°C° 0 mm 2 m/s 735 mmHg 47%
    09:00 +26°C° 0 mm 2 m/s 734 mmHg 43%
    10:00 +27°C° 0 mm 2 m/s 734 mmHg 41%
    11:00 +28°C° 0 mm 2 m/s 734 mmHg 39%
    12:00 +30°C° 0 mm 2 m/s 733 mmHg 37%
    13:00 +30°C° 0 mm 2 m/s 733 mmHg 36%
    14:00 +31°C° 0 mm 2 m/s 732 mmHg 35%
    15:00 +31°C° 0 mm 2 m/s 732 mmHg 34%
    16:00 +31°C° 0 mm 2 m/s 731 mmHg 36%
    17:00 +30°C° 0 mm 1 m/s 731 mmHg 38%
    18:00 +30°C° 0 mm 1 m/s 731 mmHg 40%
    19:00 +28°C° 0 mm 1 m/s 731 mmHg 42%
    20:00 +26°C° 0 mm 2 m/s 731 mmHg 45%
    21:00 +24°C° 0 mm 2 m/s 731 mmHg 48%
    22:00 +23°C° 0 mm 2 m/s 731 mmHg 50%
    23:00 +21°C° 0 mm 2 m/s 731 mmHg 52%
    Voir plus